This demonstration page uses our WeatherBlox Daily Observations layout. Learn more.

Left ArrowRight Arrow

Hourly Observations for December 23, 2015

Temp ( °F °C ) Dew Point ( °F °C ) Humidity (%) Winds ( mph kmh ) Pressure ( in mb ) Visibility ( mi km ) Precip ( " mm )
12:53 am 00:53 Mostly Cloudy 54 12.2 52 11.1 93 93 N N/A 29.83 1010 10 16 N/A
1:53 am 01:53 Cloudy 57 13.9 54 12.2 90 90 SSE 7 11 29.83 1010 10 16 N/A
2:53 am 02:53 Cloudy 58 14.4 56 13.3 93 93 VRB 3 6 29.82 1010 10 16 N/A
3:53 am 03:53 Mostly Cloudy 58 14.4 56 13.3 93 93 VRB 3 6 29.80 1009 10 16 N/A
4:53 am 04:53 Mostly Cloudy 55 12.8 54 12.2 96 96 E 5 7 29.78 1009 9 14 N/A
5:32 am 05:32 Cloudy 56 13.3 55 12.8 97 97 E 5 7 29.77 1008 10 16 N/A
5:50 am 05:50 Mostly Cloudy 55 13 54 12 94 94 E 6 9 29.77 1008 9 14 N/A
5:53 am 05:53 Mostly Cloudy 55 12.8 54 12.2 96 96 E 5 7 29.77 1008 10 16 N/A
6:18 am 06:18 Cloudy 56 13.3 55 12.8 97 97 E 3 6 29.77 1008 10 16 N/A
6:45 am 06:45 Cloudy with Light Rain 59 15 57 13.9 93 93 VRB 6 9 29.77 1008 5 8 0.02 0.51
6:53 am 06:53 Cloudy 59 15 57 13.9 93 93 VRB 6 9 29.77 1008 10 16 0.02 0.51
7:06 am 07:06 Cloudy with Light Rain 59 15 57 13.9 93 93 VRB 6 9 29.77 1008 3 4 0.05 1.27
7:13 am 07:13 Cloudy with Light Rain 59 15 57 13.9 93 93 SSE 8 13 29.77 1008 8 13 0.05 1.27
7:24 am 07:24 Cloudy with Light Rain 59 15 57 13.9 93 93 VRB 6 9 29.77 1008 9 14 0.06 1.52
7:31 am 07:31 Cloudy with Light Rain 59 15 57 13.9 93 93 SE 6 9 29.74 1007 6 10 0.07 1.78
7:42 am 07:42 Cloudy with Light Rain 59 15 57 13.9 93 93 VRB 5 7 29.74 1007 10 16 0.07 1.78
7:53 am 07:53 Cloudy 59 15 57 13.9 93 93 VRB 5 7 29.75 1007 10 16 0.07 1.78
8:30 am 08:30 Mostly Cloudy 60 15.6 58 14.4 93 93 VRB 6 9 29.74 1007 10 16 N/A
8:49 am 08:49 Mostly Cloudy 61 16 57 14 88 88 N N/A 29.74 1007 10 16 N/A
8:53 am 08:53 Mostly Cloudy 60 15.6 58 14.4 93 93 VRB 3 6 29.74 1007 10 16 N/A
9:14 am 09:14 Cloudy with Light Rain 60 15.6 58 14.4 93 93 VRB 3 6 29.74 1007 10 16 N/A
9:44 am 09:44 Cloudy 60 15.6 58 14.4 93 93 N N/A 29.74 1007 10 16 N/A
9:53 am 09:53 Cloudy 60 15.6 58 14.4 93 93 VRB 3 6 29.73 1007 10 16 N/A
10:08 am 10:08 Cloudy 61 16.1 58 14.4 90 90 VRB 5 7 29.74 1007 10 16 N/A
10:15 am 10:15 Mostly Cloudy 61 16.1 58 14.4 90 90 VRB 5 7 29.71 1006 10 16 N/A
10:53 am 10:53 Cloudy 62 16.7 59 15 90 90 VRB 6 9 29.70 1006 10 16 N/A
11:37 am 11:37 Cloudy 64 17.8 59 15 84 84 VRB 7 11 29.68 1005 10 16 N/A
11:53 am 11:53 Cloudy 64 17.8 59 15 84 84 VRB 7 11 29.65 1004 10 16 N/A
12:22 pm 12:22 Cloudy 64 17.8 59 15 84 84 VRB 7 11 29.65 1004 10 16 N/A
12:53 pm 12:53 Cloudy 65 18.3 59 15 81 81 SSE 10 17 29.62 1003 10 16 N/A
1:53 pm 13:53 Cloudy 66 18.9 59 15 78 78 SSE 8 13 29.56 1001 10 16 N/A
2:53 pm 14:53 Mostly Cloudy 66 18.9 58 14.4 75 75 S 10 17 29.53 1000 10 16 N/A
3:53 pm 15:53 Cloudy 65 18.3 59 15 81 81 S 13 20 29.52 1000 10 16 0.01 0.25
4:20 pm 16:20 Cloudy 66 18.9 59 15 78 78 S 10 17 29.50 999 10 16 N/A
4:53 pm 16:53 Cloudy 66 18.9 58 14.4 75 75 S 12 19 29.50 999 10 16 N/A
5:22 pm 17:22 Cloudy with Heavy Rain 63 17.2 58 14.4 84 84 W 26 43 29.59 1002 2 2 0.17 4.32
5:33 pm 17:33 Cloudy with Heavy Rain 57 13.9 54 12.2 90 90 WSW 10 17 29.59 1002 2 3 0.27 6.86
5:42 pm 17:42 Cloudy with Rain 57 13.9 54 12.2 90 90 SW 8 13 29.59 1002 3 5 0.30 7.62
5:53 pm 17:53 Cloudy with Rain 57 13.9 55 12.8 93 93 SSW 5 7 29.56 1001 4 6 0.32 8.13
6:53 pm 18:53 Cloudy with Light Rain 56 13.3 54 12.2 93 93 SE 3 6 29.54 1000 10 16 0.06 1.52
7:42 pm 19:42 Cloudy with Nearby Thunderstorms 56 13.3 55 12.8 97 97 NW 5 7 29.59 1002 3 4 0.15 3.81
7:44 pm 19:44 Cloudy with Strong Thunderstorms 56 13.3 55 12.8 97 97 N N/A 29.59 1002 2 2 0.19 4.83
7:53 pm 19:53 Cloudy with Strong Thunderstorms 56 13.3 55 12.8 97 97 VRB 3 6 29.58 1002 2 2 0.28 7.11
7:58 pm 19:58 Cloudy with Strong Thunderstorms 56 13.3 55 12.8 97 97 SSW 5 7 29.59 1002 2 3 0.02 0.51
8:20 pm 20:20 Cloudy with Thunderstorms 56 13.3 55 12.8 97 97 ESE 5 7 29.56 1001 3 5 0.12 3.05
8:53 pm 20:53 Cloudy with Rain 56 13.3 55 12.8 97 97 SE 5 7 29.52 1000 5 8 0.23 5.84
9:13 pm 21:13 Cloudy with Nearby Thunderstorms 56 13.3 55 12.8 97 97 SE 9 15 29.50 999 6 10 0.06 1.52
9:28 pm 21:28 Cloudy with Light Rain 59 15 55 12.8 87 87 S 8 13 29.50 999 10 16 0.06 1.52
9:53 pm 21:53 Partly Cloudy 59 15 55 12.8 87 87 S 9 15 29.50 999 10 16 0.06 1.52
10:53 pm 22:53 Mostly Clear 58 14.4 54 12.2 87 87 S 7 11 29.54 1001 10 16 N/A
11:53 pm 23:53 Clear 57 13.9 54 12.2 90 90 S 3 6 29.58 1002 10 16 N/A

Powered by AerisWeather